Latest Weather Observations for Sydney Harbour

IDN60801

Issued at 4:34 pm EDT Saturday 20 December 2014 (issued every 30 minutes, with the page automatically refreshed every 10 minutes)

About weather observations | Map of weather stations | Latest weather observations for NSW | Other Formats
Station Details ID: 066196 Name: WEDDING CAKE WEST Lat: -33.84 Lon: 151.26 Height: 6.0 m
Data from the previous 72 hours. | See also: Recent months for locations in New South Wales
Date/Time
EDT
Temp
°C
App
Temp
°C
Dew
Point
Rel
Hum
%
Delta-T
°C
Wind Press
QNH
hPa
Press
MSL
hPa
Rain
since 9 am
mm
Dir
 
Spd
km/h
Gust
km/h
Spd
kts
Gust
kts
20/04:30pm 20.3 - - - - ENE 20 26 11 14 - - -
20/04:00pm 20.2 - - - - ENE 20 26 11 14 - - -
20/03:30pm 19.9 - - - - ENE 24 26 13 14 - - -
20/03:00pm 20.0 - - - - ENE 20 26 11 14 - - -
20/02:30pm 19.8 - - - - ENE 20 24 11 13 - - -
20/02:00pm 20.1 - - - - ENE 19 24 10 13 - - -
20/01:30pm 19.7 - - - - ENE 19 24 10 13 - - -
20/01:00pm 19.8 - - - - ENE 19 24 10 13 - - -
20/12:30pm 19.9 - - - - E 17 22 9 12 - - -
20/12:00pm 20.1 - - - - E 15 19 8 10 - - -
20/11:30am 20.2 - - - - E 15 19 8 10 - - -
20/11:00am 19.5 - - - - ENE 15 19 8 10 - - -
20/10:30am 19.9 - - - - E 11 15 6 8 - - -
20/10:00am 19.6 - - - - ESE 11 17 6 9 - - -
20/09:30am 19.7 - - - - SE 13 17 7 9 - - -
20/09:00am 19.6 - - - - E 11 13 6 7 - - -
20/08:30am 19.3 - - - - SE 11 17 6 9 - - -
20/08:00am 18.9 - - - - S 9 13 5 7 - - -
20/07:30am 18.8 - - - - SSW 11 13 6 7 - - -
20/07:00am 18.9 - - - - SSE 7 9 4 5 - - -
20/06:30am 18.9 - - - - SSE 9 15 5 8 - - -
20/06:00am 19.0 - - - - SE 11 15 6 8 - - -
20/05:30am 19.0 - - - - SSE 11 15 6 8 - - -
20/05:00am 19.0 - - - - SE 9 13 5 7 - - -
20/04:30am 18.9 - - - - SSE 13 17 7 9 - - -
20/04:00am 18.8 - - - - SSE 11 15 6 8 - - -
20/03:30am 18.9 - - - - SSE 13 17 7 9 - - -
20/03:00am 19.0 - - - - SE 15 17 8 9 - - -
20/02:30am 19.0 - - - - SSE 13 17 7 9 - - -
20/02:00am 19.0 - - - - SSE 17 19 9 10 - - -
20/01:30am 19.1 - - - - SSE 15 20 8 11 - - -
20/01:00am 19.0 - - - - SE 15 22 8 12 - - -
20/12:30am 19.2 - - - - SSE 17 20 9 11 - - -
20/12:00am 19.3 - - - - SSE 17 20 9 11 - - -
 
Date/Time
EDT
Temp
°C
App
Temp
°C
Dew
Point
Rel
Hum
%
Delta-T
°C
Wind Press
QNH
hPa
Press
MSL
hPa
Rain
since 9 am
mm
Dir
 
Spd
km/h
Gust
km/h
Spd
kts
Gust
kts
19/11:30pm 19.2 - - - - SSE 17 22 9 12 - - -
19/11:00pm 19.3 - - - - SSE 19 24 10 13 - - -
19/10:30pm 19.4 - - - - SSE 17 24 9 13 - - -
19/10:00pm 19.4 - - - - SSE 20 28 11 15 - - -
19/09:30pm 19.4 - - - - SSE 20 26 11 14 - - -
19/09:00pm 19.5 - - - - SSE 20 28 11 15 - - -
19/08:30pm 19.6 - - - - SSE 20 28 11 15 - - -
19/08:00pm 19.5 - - - - SSE 20 28 11 15 - - -
19/07:30pm 19.4 - - - - SSE 20 28 11 15 - - -
19/07:00pm 19.5 - - - - SSE 20 28 11 15 - - -
19/06:30pm 19.2 - - - - SE 24 33 13 18 - - -
19/06:00pm 19.5 - - - - SSE 26 33 14 18 - - -
19/05:30pm 19.2 - - - - SSE 26 33 14 18 - - -
19/05:00pm 19.5 - - - - SSE 26 35 14 19 - - -
19/04:30pm 20.0 - - - - SSE 26 35 14 19 - - -
19/04:00pm 19.8 - - - - SE 28 35 15 19 - - -
19/03:30pm 19.9 - - - - SSE 26 35 14 19 - - -
19/03:00pm 19.9 - - - - SSE 26 35 14 19 - - -
19/02:30pm 19.9 - - - - SSE 28 35 15 19 - - -
19/02:00pm 19.6 - - - - SE 24 35 13 19 - - -
19/01:30pm 19.7 - - - - S 28 44 15 24 - - -
19/01:00pm 20.0 - - - - SSE 26 39 14 21 - - -
19/12:30pm 19.6 - - - - SSE 28 37 15 20 - - -
19/12:00pm 19.5 - - - - SSE 26 35 14 19 - - -
19/11:30am 19.3 - - - - S 30 39 16 21 - - -
19/11:00am 19.4 - - - - SSE 30 43 16 23 - - -
19/10:30am 19.0 - - - - S 32 41 17 22 - - -
19/10:00am 19.2 - - - - S 33 46 18 25 - - -
19/09:30am 19.4 - - - - S 35 46 19 25 - - -
19/09:00am 19.4 - - - - S 39 52 21 28 - - -
19/08:30am 19.5 - - - - S 33 50 18 27 - - -
19/08:00am 19.4 - - - - S 41 54 22 29 - - -
19/07:30am 19.4 - - - - S 39 50 21 27 - - -
19/07:03am 19.1 - - - - S 37 56 20 30 - - -
19/07:00am 19.3 - - - - S 35 50 19 27 - - -
19/06:30am 19.1 - - - - S 44 56 24 30 - - -
19/06:00am 19.1 - - - - S 44 56 24 30 - - -
19/05:30am 19.3 - - - - SSW 46 61 25 33 - - -
19/05:00am 19.3 - - - - SSW 39 48 21 26 - - -
19/04:30am 19.3 - - - - SSW 46 57 25 31 - - -
19/04:06am 21.5 - - - - WSW 28 61 15 33 - - -
19/04:00am 21.8 - - - - W 26 33 14 18 - - -
19/03:30am 21.5 - - - - WSW 24 32 13 17 - - -
19/03:00am 21.5 - - - - WSW 22 30 12 16 - - -
19/02:30am 21.9 - - - - WSW 17 26 9 14 - - -
19/02:00am 21.9 - - - - WSW 13 17 7 9 - - -
19/01:30am 21.6 - - - - SW 13 15 7 8 - - -
19/01:00am 21.7 - - - - NNE 2 11 1 6 - - -
19/12:30am 21.9 - - - - CALM 0 0 0 0 - - -
19/12:00am 22.0 - - - - CALM 0 7 0 4 - - -
 
Date/Time
EDT
Temp
°C
App
Temp
°C
Dew
Point
Rel
Hum
%
Delta-T
°C
Wind Press
QNH
hPa
Press
MSL
hPa
Rain
since 9 am
mm
Dir
 
Spd
km/h
Gust
km/h
Spd
kts
Gust
kts
18/11:30pm 21.9 - - - - NNE 6 7 3 4 - - -
18/11:00pm 21.8 - - - - NNE 6 9 3 5 - - -
18/10:30pm 22.0 - - - - N 13 15 7 8 - - -
18/10:00pm 22.1 - - - - N 17 19 9 10 - - -
18/09:30pm 22.1 - - - - N 17 20 9 11 - - -
18/09:00pm 21.9 - - - - NNE 17 20 9 11 - - -
18/08:30pm 21.9 - - - - NNE 20 24 11 13 - - -
18/08:00pm 22.1 - - - - NNE 24 32 13 17 - - -
18/07:30pm 22.3 - - - - NE 20 24 11 13 - - -
18/07:00pm 22.5 - - - - NNE 22 30 12 16 - - -
18/06:30pm 22.5 - - - - NE 22 30 12 16 - - -
18/06:00pm 22.4 - - - - ENE 22 26 12 14 - - -
18/05:30pm 22.5 - - - - NE 22 28 12 15 - - -
18/05:00pm 22.4 - - - - NE 20 26 11 14 - - -
18/04:30pm 22.6 - - - - NE 20 28 11 15 - - -
18/04:00pm 22.3 - - - - ENE 19 28 10 15 - - -
18/03:30pm 22.1 - - - - ENE 19 26 10 14 - - -
18/03:00pm 22.2 - - - - ENE 19 28 10 15 - - -
18/02:30pm 22.0 - - - - ENE 15 19 8 10 - - -
18/02:00pm 21.9 - - - - ENE 13 17 7 9 - - -
18/01:30pm 21.9 - - - - E 11 13 6 7 - - -
18/01:00pm 22.0 - - - - E 9 13 5 7 - - -
18/12:30pm 21.3 - - - - NNW 2 9 1 5 - - -
18/12:00pm 20.5 - - - - WSW 2 9 1 5 - - -
18/11:30am 20.5 - - - - WSW 4 7 2 4 - - -
18/11:00am 19.7 - - - - WSW 9 11 5 6 - - -
18/10:30am 19.0 - - - - WSW 9 11 5 6 - - -
18/10:00am 18.4 - - - - WSW 11 13 6 7 - - -
18/09:30am 18.4 - - - - W 11 15 6 8 - - -
18/09:00am 18.7 - - - - W 11 17 6 9 - - -
18/08:30am 18.6 - - - - WSW 15 17 8 9 - - -
18/08:00am 18.5 - - - - WSW 17 20 9 11 - - -
18/07:30am 18.4 - - - - W 15 17 8 9 - - -
18/07:00am 18.7 - - - - WSW 15 19 8 10 - - -
18/06:30am 19.3 - - - - E 6 9 3 5 - - -
18/06:00am 19.8 - - - - NNE 9 15 5 8 - - -
18/05:30am 20.0 - - - - NE 11 19 6 10 - - -
18/05:00am 20.1 - - - - ESE 7 11 4 6 - - -
18/04:30am 20.0 - - - - ESE 7 9 4 5 - - -
18/04:00am 19.9 - - - - SE 11 15 6 8 - - -
18/03:30am 19.8 - - - - ESE 11 13 6 7 - - -
18/03:00am 19.8 - - - - E 11 13 6 7 - - -
18/02:30am 19.7 - - - - ENE 13 17 7 9 - - -
18/02:00am 19.7 - - - - E 11 13 6 7 - - -
18/01:30am 19.7 - - - - ESE 13 15 7 8 - - -
18/01:00am 19.6 - - - - ENE 15 20 8 11 - - -
18/12:30am 19.8 - - - - E 13 19 7 10 - - -
18/12:00am 19.8 - - - - ENE 11 20 6 11 - - -
 
Date/Time
EDT
Temp
°C
App
Temp
°C
Dew
Point
Rel
Hum
%
Delta-T
°C
Wind Press
QNH
hPa
Press
MSL
hPa
Rain
since 9 am
mm
Dir
 
Spd
km/h
Gust
km/h
Spd
kts
Gust
kts
17/11:30pm 19.8 - - - - E 7 11 4 6 - - -
17/11:00pm 19.5 - - - - E 7 9 4 5 - - -
17/10:30pm 19.3 - - - - NE 11 17 6 9 - - -
17/10:00pm 19.1 - - - - ENE 11 17 6 9 - - -
17/09:30pm 19.6 - - - - ENE 11 20 6 11 - - -
17/09:00pm 19.8 - - - - E 13 20 7 11 - - -
17/08:30pm 19.7 - - - - E 17 20 9 11 - - -
17/08:00pm 19.7 - - - - ESE 19 22 10 12 - - -
17/07:30pm 19.7 - - - - SE 20 26 11 14 - - -
17/07:00pm 19.7 - - - - SE 20 26 11 14 - - -
17/06:30pm 19.7 - - - - SE 19 26 10 14 - - -
17/06:00pm 19.7 - - - - SE 20 26 11 14 - - -
17/05:30pm 19.8 - - - - SE 22 28 12 15 - - -
17/05:00pm 19.7 - - - - SE 20 28 11 15 - - -

Other Formats:

Comma delimited format used in spreadsheet applications
http://www.bom.gov.au/fwo/IDN60801/IDN60801.95766.axf

JavaScript Object Notation format (JSON) in row-major order
http://www.bom.gov.au/fwo/IDN60801/IDN60801.95766.json